Time,TemperatureF,DewpointF,PressureIn,WindDirection,WindDirectionDegrees,WindSpeedMPH,WindSpeedGustMPH,Humidity,HourlyPrecipIn,Conditions,Clouds,dailyrainin,SoftwareType,DateUTC
2013-10-23 00:01:00,31.9,29.3,0.00,South,180,0.0,5.0,90,0.00,,,0.00,Weather View 32 v70,2013-10-23 04:01:00,
2013-10-23 00:02:00,31.9,29.3,0.00,South,180,0.0,5.0,90,0.00,,,0.00,Weather View 32 v70,2013-10-23 04:02:00,
2013-10-23 00:07:00,31.7,29.1,0.00,South,180,0.0,5.0,90,0.00,,,0.00,Weather View 32 v70,2013-10-23 04:07:00,
2013-10-23 00:12:00,31.4,28.8,0.00,South,180,0.0,5.0,90,0.00,,,0.00,Weather View 32 v70,2013-10-23 04:12:00,
2013-10-23 00:17:00,31.4,29.1,0.00,South,180,0.0,5.0,91,0.00,,,0.00,Weather View 32 v70,2013-10-23 04:17:00,
2013-10-23 00:22:00,31.1,28.8,0.00,South,180,0.0,5.0,91,0.00,,,0.00,Weather View 32 v70,2013-10-23 04:22:00,
2013-10-23 00:27:00,31.0,28.7,0.00,South,180,0.0,5.0,91,0.00,,,0.00,Weather View 32 v70,2013-10-23 04:27:00,
2013-10-23 00:32:00,30.8,28.4,0.00,South,180,0.0,5.0,91,0.00,,,0.00,Weather View 32 v70,2013-10-23 04:32:00,
2013-10-23 00:37:00,30.7,28.6,0.00,South,180,1.0,3.0,92,0.00,,,0.00,Weather View 32 v70,2013-10-23 04:37:00,
2013-10-23 00:42:00,30.9,28.8,0.00,South,180,1.0,4.0,92,0.00,,,0.00,Weather View 32 v70,2013-10-23 04:42:00,
2013-10-23 00:47:00,31.1,29.0,0.00,South,180,1.0,4.0,92,0.00,,,0.00,Weather View 32 v70,2013-10-23 04:47:00,
2013-10-23 00:52:00,31.2,29.2,0.00,South,180,1.0,4.0,92,0.00,,,0.00,Weather View 32 v70,2013-10-23 04:52:00,
2013-10-23 00:57:00,31.1,29.0,0.00,South,180,1.0,4.0,92,0.00,,,0.00,Weather View 32 v70,2013-10-23 04:57:00,
2013-10-23 01:02:00,31.0,28.9,0.00,South,180,0.0,4.0,92,0.00,,,0.00,Weather View 32 v70,2013-10-23 05:02:00,
2013-10-23 01:07:00,31.0,28.9,0.00,South,180,1.0,4.0,92,0.00,,,0.00,Weather View 32 v70,2013-10-23 05:07:00,
2013-10-23 01:12:00,31.0,28.9,0.00,South,180,1.0,4.0,92,0.00,,,0.00,Weather View 32 v70,2013-10-23 05:12:00,
2013-10-23 01:17:00,31.0,28.9,0.00,South,180,1.0,4.0,92,0.00,,,0.00,Weather View 32 v70,2013-10-23 05:17:00,
2013-10-23 01:22:00,31.1,29.0,0.00,South,180,1.0,4.0,92,0.00,,,0.00,Weather View 32 v70,2013-10-23 05:22:00,
2013-10-23 01:27:00,31.0,29.2,0.00,South,180,1.0,4.0,93,0.00,,,0.00,Weather View 32 v70,2013-10-23 05:27:00,
2013-10-23 01:32:00,31.0,28.9,0.00,South,180,1.0,4.0,92,0.00,,,0.00,Weather View 32 v70,2013-10-23 05:32:00,
2013-10-23 01:37:00,30.9,28.8,0.00,South,180,0.0,4.0,92,0.00,,,0.00,Weather View 32 v70,2013-10-23 05:37:00,
2013-10-23 01:42:00,30.8,28.7,0.00,South,180,0.0,4.0,92,0.00,,,0.00,Weather View 32 v70,2013-10-23 05:42:00,
2013-10-23 01:47:00,30.5,28.5,0.00,South,180,0.0,3.0,92,0.00,,,0.00,Weather View 32 v70,2013-10-23 05:47:00,
2013-10-23 01:52:00,30.4,28.4,0.00,South,180,0.0,3.0,92,0.00,,,0.00,Weather View 32 v70,2013-10-23 05:52:00,
2013-10-23 01:57:00,30.3,28.3,0.00,South,180,0.0,3.0,92,0.00,,,0.00,Weather View 32 v70,2013-10-23 05:57:00,
2013-10-23 02:02:00,30.3,28.3,0.00,South,180,0.0,3.0,92,0.00,,,0.00,Weather View 32 v70,2013-10-23 06:02:00,
2013-10-23 02:07:00,30.2,28.2,0.00,South,180,0.0,3.0,92,0.00,,,0.00,Weather View 32 v70,2013-10-23 06:07:00,
2013-10-23 02:12:00,30.1,28.0,0.00,South,180,0.0,3.0,92,0.00,,,0.00,Weather View 32 v70,2013-10-23 06:12:00,
2013-10-23 02:17:00,30.1,28.0,0.00,South,180,0.0,2.0,92,0.00,,,0.00,Weather View 32 v70,2013-10-23 06:17:00,
2013-10-23 02:22:00,30.2,28.4,0.00,South,180,0.0,2.0,93,0.00,,,0.00,Weather View 32 v70,2013-10-23 06:22:00,
2013-10-23 02:34:00,30.3,28.5,0.00,South,180,0.0,2.0,93,0.00,,,0.00,Weather View 32 v70,2013-10-23 06:34:00,
2013-10-23 02:39:00,30.0,28.2,0.00,South,180,0.0,0.0,93,0.00,,,0.00,Weather View 32 v70,2013-10-23 06:39:00,
2013-10-23 02:44:00,29.9,28.1,0.00,South,180,0.0,0.0,93,0.00,,,0.00,Weather View 32 v70,2013-10-23 06:44:00,
2013-10-23 02:49:00,29.5,27.8,0.00,South,180,0.0,0.0,93,0.00,,,0.00,Weather View 32 v70,2013-10-23 06:49:00,
2013-10-23 02:54:00,29.4,27.6,0.00,South,180,0.0,0.0,93,0.00,,,0.00,Weather View 32 v70,2013-10-23 06:54:00,
2013-10-23 02:59:00,29.3,27.5,0.00,South,180,0.0,0.0,93,0.00,,,0.00,Weather View 32 v70,2013-10-23 06:59:00,
2013-10-23 03:04:00,29.3,27.5,0.00,South,180,0.0,0.0,93,0.00,,,0.00,Weather View 32 v70,2013-10-23 07:04:00,
2013-10-23 03:09:00,29.2,27.4,0.00,South,180,0.0,0.0,93,0.00,,,0.00,Weather View 32 v70,2013-10-23 07:09:00,
2013-10-23 03:14:00,29.1,27.3,0.00,South,180,0.0,0.0,93,0.00,,,0.00,Weather View 32 v70,2013-10-23 07:14:00,
2013-10-23 03:19:00,29.0,27.2,0.00,South,180,0.0,0.0,93,0.00,,,0.00,Weather View 32 v70,2013-10-23 07:19:00,
2013-10-23 03:24:00,28.9,27.1,0.00,South,180,0.0,0.0,93,0.00,,,0.00,Weather View 32 v70,2013-10-23 07:24:00,
2013-10-23 03:29:00,28.7,27.0,0.00,South,180,0.0,0.0,93,0.00,,,0.00,Weather View 32 v70,2013-10-23 07:29:00,
2013-10-23 03:34:00,28.6,26.9,0.00,South,180,0.0,0.0,93,0.00,,,0.00,Weather View 32 v70,2013-10-23 07:34:00,
2013-10-23 03:39:00,28.6,26.9,0.00,South,180,0.0,0.0,93,0.00,,,0.00,Weather View 32 v70,2013-10-23 07:39:00,
2013-10-23 03:44:00,28.6,26.9,0.00,South,180,0.0,0.0,93,0.00,,,0.00,Weather View 32 v70,2013-10-23 07:44:00,
2013-10-23 03:49:00,28.9,27.3,0.00,South,180,0.0,0.0,94,0.00,,,0.00,Weather View 32 v70,2013-10-23 07:49:00,
2013-10-23 03:54:00,28.9,27.3,0.00,South,180,0.0,0.0,94,0.00,,,0.00,Weather View 32 v70,2013-10-23 07:54:00,
2013-10-23 03:59:00,29.1,27.6,0.00,South,180,0.0,0.0,94,0.00,,,0.00,Weather View 32 v70,2013-10-23 07:59:00,
2013-10-23 04:04:00,29.2,27.7,0.00,South,180,0.0,0.0,94,0.00,,,0.00,Weather View 32 v70,2013-10-23 08:04:00,
2013-10-23 04:09:00,29.2,27.7,0.00,South,180,0.0,0.0,94,0.00,,,0.00,Weather View 32 v70,2013-10-23 08:09:00,
2013-10-23 04:14:00,29.2,27.7,0.00,South,180,0.0,0.0,94,0.00,,,0.00,Weather View 32 v70,2013-10-23 08:14:00,
2013-10-23 04:19:00,29.2,27.7,0.00,South,180,0.0,0.0,94,0.00,,,0.00,Weather View 32 v70,2013-10-23 08:19:00,
2013-10-23 04:24:00,29.2,27.7,0.00,South,180,0.0,0.0,94,0.00,,,0.00,Weather View 32 v70,2013-10-23 08:24:00,
2013-10-23 04:29:00,29.3,27.8,0.00,South,180,0.0,3.0,94,0.00,,,0.00,Weather View 32 v70,2013-10-23 08:29:00,
2013-10-23 04:34:00,29.3,27.8,0.00,South,180,0.0,3.0,94,0.00,,,0.00,Weather View 32 v70,2013-10-23 08:34:00,
2013-10-23 04:39:00,29.2,27.7,0.00,South,180,0.0,3.0,94,0.00,,,0.00,Weather View 32 v70,2013-10-23 08:39:00,
2013-10-23 04:44:00,29.1,27.6,0.00,South,180,0.0,3.0,94,0.00,,,0.00,Weather View 32 v70,2013-10-23 08:44:00,
2013-10-23 04:49:00,29.0,27.5,0.00,South,180,0.0,3.0,94,0.00,,,0.00,Weather View 32 v70,2013-10-23 08:49:00,
2013-10-23 04:54:00,29.0,27.5,0.00,South,180,0.0,3.0,94,0.00,,,0.00,Weather View 32 v70,2013-10-23 08:54:00,
2013-10-23 04:59:00,28.9,27.3,0.00,South,180,0.0,3.0,94,0.00,,,0.00,Weather View 32 v70,2013-10-23 08:59:00,
2013-10-23 05:04:00,28.7,27.2,0.00,South,180,0.0,3.0,94,0.00,,,0.00,Weather View 32 v70,2013-10-23 09:04:00,
2013-10-23 05:09:00,28.6,27.1,0.00,South,180,0.0,3.0,94,0.00,,,0.00,Weather View 32 v70,2013-10-23 09:09:00,
2013-10-23 05:14:00,28.5,27.0,0.00,South,180,0.0,3.0,94,0.00,,,0.00,Weather View 32 v70,2013-10-23 09:14:00,
2013-10-23 05:19:00,28.3,26.8,0.00,South,180,0.0,3.0,94,0.00,,,0.00,Weather View 32 v70,2013-10-23 09:19:00,
2013-10-23 05:24:00,28.3,26.8,0.00,South,180,0.0,3.0,94,0.00,,,0.00,Weather View 32 v70,2013-10-23 09:24:00,
2013-10-23 05:29:00,28.6,27.1,0.00,South,180,0.0,3.0,94,0.00,,,0.00,Weather View 32 v70,2013-10-23 09:29:00,
2013-10-23 05:34:00,28.7,27.2,0.00,South,180,0.0,0.0,94,0.00,,,0.00,Weather View 32 v70,2013-10-23 09:34:00,
2013-10-23 05:39:00,29.0,27.7,0.00,South,180,0.0,0.0,95,0.00,,,0.00,Weather View 32 v70,2013-10-23 09:39:00,
2013-10-23 05:44:00,29.2,27.9,0.00,South,180,0.0,0.0,95,0.00,,,0.00,Weather View 32 v70,2013-10-23 09:44:00,
2013-10-23 05:49:00,29.4,28.2,0.00,South,180,0.0,0.0,95,0.00,,,0.00,Weather View 32 v70,2013-10-23 09:49:00,
2013-10-23 05:54:00,29.5,28.0,0.00,South,180,0.0,0.0,94,0.00,,,0.00,Weather View 32 v70,2013-10-23 09:54:00,
2013-10-23 05:59:00,29.6,28.1,0.00,South,180,0.0,0.0,94,0.00,,,0.00,Weather View 32 v70,2013-10-23 09:59:00,
2013-10-23 06:04:00,29.8,28.2,0.00,South,180,0.0,0.0,94,0.00,,,0.00,Weather View 32 v70,2013-10-23 10:04:00,
2013-10-23 06:09:00,29.8,28.2,0.00,South,180,0.0,0.0,94,0.00,,,0.00,Weather View 32 v70,2013-10-23 10:09:00,
2013-10-23 06:14:00,29.9,28.3,0.00,South,180,0.0,0.0,94,0.00,,,0.00,Weather View 32 v70,2013-10-23 10:14:00,
2013-10-23 06:19:00,30.0,28.5,0.00,South,180,0.0,0.0,94,0.00,,,0.00,Weather View 32 v70,2013-10-23 10:19:00,
2013-10-23 06:24:00,30.0,28.7,0.00,South,180,0.0,0.0,95,0.00,,,0.00,Weather View 32 v70,2013-10-23 10:24:00,
2013-10-23 06:29:00,30.1,28.6,0.00,South,180,0.0,0.0,94,0.00,,,0.00,Weather View 32 v70,2013-10-23 10:29:00,
2013-10-23 06:34:00,30.2,28.7,0.00,South,180,0.0,0.0,94,0.00,,,0.00,Weather View 32 v70,2013-10-23 10:34:00,
2013-10-23 06:39:00,30.2,28.7,0.00,South,180,0.0,0.0,94,0.00,,,0.00,Weather View 32 v70,2013-10-23 10:39:00,
2013-10-23 06:44:00,30.2,28.7,0.00,South,180,0.0,0.0,94,0.00,,,0.00,Weather View 32 v70,2013-10-23 10:44:00,
2013-10-23 06:49:00,30.1,28.6,0.00,South,180,0.0,0.0,94,0.00,,,0.00,Weather View 32 v70,2013-10-23 10:49:00,
2013-10-23 06:54:00,30.1,28.6,0.00,South,180,0.0,0.0,94,0.00,,,0.00,Weather View 32 v70,2013-10-23 10:54:00,
2013-10-23 06:59:00,30.1,28.6,0.00,South,180,0.0,0.0,94,0.00,,,0.00,Weather View 32 v70,2013-10-23 10:59:00,
2013-10-23 07:04:00,30.1,28.6,0.00,South,180,1.0,1.0,94,0.00,,,0.00,Weather View 32 v70,2013-10-23 11:04:00,
2013-10-23 07:09:00,30.3,28.8,0.00,South,180,0.0,1.0,94,0.00,,,0.00,Weather View 32 v70,2013-10-23 11:09:00,
2013-10-23 07:14:00,30.3,29.0,0.00,South,180,0.0,1.0,95,0.00,,,0.00,Weather View 32 v70,2013-10-23 11:14:00,
2013-10-23 07:19:00,30.4,29.2,0.00,South,180,0.0,1.0,95,0.00,,,0.00,Weather View 32 v70,2013-10-23 11:19:00,
2013-10-23 07:24:00,30.5,29.3,0.00,South,180,0.0,1.0,95,0.00,,,0.00,Weather View 32 v70,2013-10-23 11:24:00,
2013-10-23 07:29:00,30.5,29.3,0.00,South,180,0.0,1.0,95,0.00,,,0.00,Weather View 32 v70,2013-10-23 11:29:00,
2013-10-23 07:34:00,30.7,29.4,0.00,South,180,0.0,1.0,95,0.00,,,0.00,Weather View 32 v70,2013-10-23 11:34:00,
2013-10-23 07:39:00,30.8,29.5,0.00,South,180,0.0,1.0,95,0.00,,,0.00,Weather View 32 v70,2013-10-23 11:39:00,
2013-10-23 07:44:00,31.0,29.7,0.00,South,180,0.0,3.0,95,0.00,,,0.00,Weather View 32 v70,2013-10-23 11:44:00,
2013-10-23 07:49:00,31.0,29.7,0.00,South,180,1.0,3.0,95,0.00,,,0.00,Weather View 32 v70,2013-10-23 11:49:00,
2013-10-23 07:54:00,31.0,29.7,0.00,South,180,0.0,3.0,95,0.00,,,0.00,Weather View 32 v70,2013-10-23 11:54:00,
2013-10-23 07:59:00,31.0,29.7,0.00,South,180,0.0,3.0,95,0.00,,,0.00,Weather View 32 v70,2013-10-23 11:59:00,
2013-10-23 08:04:00,31.0,29.7,0.00,South,180,0.0,3.0,95,0.00,,,0.00,Weather View 32 v70,2013-10-23 12:04:00,
2013-10-23 08:09:00,31.1,29.8,0.00,South,180,0.0,3.0,95,0.00,,,0.00,Weather View 32 v70,2013-10-23 12:09:00,
2013-10-23 08:14:00,31.2,29.9,0.00,South,180,0.0,3.0,95,0.00,,,0.00,Weather View 32 v70,2013-10-23 12:14:00,
2013-10-23 08:19:00,31.3,30.1,0.00,South,180,0.0,3.0,95,0.00,,,0.00,Weather View 32 v70,2013-10-23 12:19:00,
2013-10-23 08:24:00,31.4,30.2,0.00,South,180,0.0,3.0,95,0.00,,,0.00,Weather View 32 v70,2013-10-23 12:24:00,
2013-10-23 08:29:00,31.6,30.3,0.00,South,180,0.0,3.0,95,0.00,,,0.00,Weather View 32 v70,2013-10-23 12:29:00,
2013-10-23 08:34:00,31.7,30.4,0.00,South,180,0.0,3.0,95,0.00,,,0.00,Weather View 32 v70,2013-10-23 12:34:00,
2013-10-23 08:39:00,31.8,30.5,0.00,South,180,0.0,3.0,95,0.00,,,0.00,Weather View 32 v70,2013-10-23 12:39:00,
2013-10-23 08:44:00,31.9,30.6,0.00,South,180,0.0,2.0,95,0.00,,,0.00,Weather View 32 v70,2013-10-23 12:44:00,
2013-10-23 08:49:00,31.9,30.6,0.00,South,180,0.0,2.0,95,0.00,,,0.00,Weather View 32 v70,2013-10-23 12:49:00,
2013-10-23 08:54:00,31.9,30.6,0.00,South,180,0.0,1.0,95,0.00,,,0.00,Weather View 32 v70,2013-10-23 12:54:00,
2013-10-23 08:59:00,32.0,30.7,0.00,South,180,0.0,1.0,95,0.00,,,0.00,Weather View 32 v70,2013-10-23 12:59:00,
2013-10-23 09:04:00,32.1,30.8,0.00,South,180,0.0,1.0,95,0.00,,,0.00,Weather View 32 v70,2013-10-23 13:04:00,
2013-10-23 09:09:00,32.1,30.8,0.00,South,180,0.0,1.0,95,0.00,,,0.00,Weather View 32 v70,2013-10-23 13:09:00,
2013-10-23 09:14:00,32.3,31.1,0.00,SSE,157,1.0,1.0,95,0.00,,,0.00,Weather View 32 v70,2013-10-23 13:14:00,
2013-10-23 09:19:00,32.7,31.4,0.00,South,180,2.0,2.0,95,0.00,,,0.00,Weather View 32 v70,2013-10-23 13:19:00,
2013-10-23 09:24:00,32.8,31.5,0.00,North,0,3.0,3.0,95,0.00,,,0.00,Weather View 32 v70,2013-10-23 13:24:00,
2013-10-23 09:29:00,33.1,31.9,0.00,South,180,1.0,4.0,95,0.00,,,0.00,Weather View 32 v70,2013-10-23 13:29:00,
2013-10-23 09:34:00,33.6,32.3,0.00,WSW,247,2.0,4.0,95,0.00,,,0.00,Weather View 32 v70,2013-10-23 13:34:00,
2013-10-23 09:39:00,33.9,32.6,0.00,East,90,2.0,4.0,95,0.00,,,0.00,Weather View 32 v70,2013-10-23 13:39:00,
2013-10-23 09:44:00,34.3,33.0,0.00,SW,225,0.0,4.0,95,0.00,,,0.00,Weather View 32 v70,2013-10-23 13:44:00,
2013-10-23 09:49:00,34.8,33.5,0.00,SW,225,3.0,4.0,95,0.00,,,0.00,Weather View 32 v70,2013-10-23 13:49:00,
2013-10-23 09:54:00,35.5,33.7,0.00,South,180,3.0,5.0,93,0.00,,,0.00,Weather View 32 v70,2013-10-23 13:54:00,
2013-10-23 09:59:00,36.2,33.5,0.00,South,180,0.0,5.0,90,0.00,,,0.00,Weather View 32 v70,2013-10-23 13:59:00,
2013-10-23 10:04:00,36.5,32.7,0.00,SSW,202,1.0,5.0,86,0.00,,,0.00,Weather View 32 v70,2013-10-23 14:04:00,
2013-10-23 10:09:00,36.8,31.2,0.00,SW,225,2.0,6.0,80,0.00,,,0.00,Weather View 32 v70,2013-10-23 14:09:00,
2013-10-23 10:14:00,37.2,31.9,0.00,SW,225,2.0,6.0,81,0.00,,,0.00,Weather View 32 v70,2013-10-23 14:14:00,
2013-10-23 10:19:00,37.5,31.3,0.00,WNW,292,2.0,6.0,78,0.00,,,0.00,Weather View 32 v70,2013-10-23 14:19:00,
2013-10-23 10:24:00,38.0,31.7,0.00,SSE,157,2.0,6.0,78,0.00,,,0.00,Weather View 32 v70,2013-10-23 14:24:00,
2013-10-23 10:29:00,38.6,30.4,0.00,SSW,202,5.0,7.0,72,0.00,,,0.00,Weather View 32 v70,2013-10-23 14:29:00,
2013-10-23 10:34:00,38.9,31.3,0.00,SE,135,2.0,7.0,74,0.00,,,0.00,Weather View 32 v70,2013-10-23 14:34:00,
2013-10-23 10:44:00,38.9,30.9,0.00,East,90,2.0,7.0,73,0.00,,,0.00,Weather View 32 v70,2013-10-23 14:44:00,
2013-10-23 10:49:00,39.3,29.6,0.00,SW,225,3.0,7.0,68,0.00,,,0.00,Weather View 32 v70,2013-10-23 14:49:00,
2013-10-23 10:54:00,39.8,30.8,0.00,SSW,202,2.0,9.0,70,0.00,,,0.00,Weather View 32 v70,2013-10-23 14:54:00,
2013-10-23 10:59:00,40.0,30.3,0.00,West,270,3.0,9.0,68,0.00,,,0.00,Weather View 32 v70,2013-10-23 14:59:00,
2013-10-23 11:04:00,40.3,29.9,0.00,South,180,2.0,9.0,66,0.00,,,0.00,Weather View 32 v70,2013-10-23 15:04:00,
2013-10-23 11:09:00,40.4,30.0,0.00,SW,225,2.0,9.0,66,0.00,,,0.00,Weather View 32 v70,2013-10-23 15:09:00,
2013-10-23 11:14:00,40.7,30.2,0.00,SW,225,3.0,9.0,66,0.00,,,0.00,Weather View 32 v70,2013-10-23 15:14:00,
2013-10-23 11:19:00,40.9,29.6,0.00,SSW,202,4.0,9.0,64,0.00,,,0.00,Weather View 32 v70,2013-10-23 15:19:00,
2013-10-23 11:24:00,41.1,29.1,0.00,SW,225,5.0,9.0,62,0.00,,,0.00,Weather View 32 v70,2013-10-23 15:24:00,
2013-10-23 11:29:00,40.6,28.5,0.00,SSW,202,3.0,9.0,62,0.00,,,0.00,Weather View 32 v70,2013-10-23 15:29:00,
2013-10-23 11:34:00,40.3,29.1,0.00,SW,225,2.0,9.0,64,0.00,,,0.00,Weather View 32 v70,2013-10-23 15:34:00,
2013-10-23 11:39:00,40.2,29.4,0.00,SSE,157,2.0,9.0,65,0.00,,,0.00,Weather View 32 v70,2013-10-23 15:39:00,
2013-10-23 11:44:00,40.4,29.6,0.00,South,180,2.0,9.0,65,0.00,,,0.00,Weather View 32 v70,2013-10-23 15:44:00,
2013-10-23 11:49:00,40.2,29.0,0.00,SW,225,2.0,9.0,64,0.00,,,0.00,Weather View 32 v70,2013-10-23 15:49:00,
2013-10-23 11:54:00,40.1,28.9,0.00,SSW,202,1.0,6.0,64,0.00,,,0.00,Weather View 32 v70,2013-10-23 15:54:00,
2013-10-23 11:59:00,40.2,29.4,0.00,SW,225,3.0,6.0,65,0.00,,,0.00,Weather View 32 v70,2013-10-23 15:59:00,
2013-10-23 12:04:00,40.3,29.9,0.00,SSW,202,2.0,6.0,66,0.00,,,0.00,Weather View 32 v70,2013-10-23 16:04:00,
2013-10-23 12:09:00,40.3,29.1,0.00,South,180,0.0,6.0,64,0.00,,,0.00,Weather View 32 v70,2013-10-23 16:09:00,
2013-10-23 12:14:00,40.3,29.1,0.00,South,180,1.0,6.0,64,0.00,,,0.00,Weather View 32 v70,2013-10-23 16:14:00,
2013-10-23 12:19:00,40.2,29.4,0.00,SSW,202,1.0,6.0,65,0.00,,,0.00,Weather View 32 v70,2013-10-23 16:19:00,
2013-10-23 12:24:00,40.2,30.1,0.00,South,180,0.0,5.0,67,0.00,,,0.00,Weather View 32 v70,2013-10-23 16:24:00,
2013-10-23 12:29:00,40.3,29.9,0.00,South,180,1.0,5.0,66,0.00,,,0.00,Weather View 32 v70,2013-10-23 16:29:00,
2013-10-23 12:34:00,40.3,29.5,0.00,SSW,202,1.0,5.0,65,0.00,,,0.00,Weather View 32 v70,2013-10-23 16:34:00,
2013-10-23 12:39:00,40.3,29.5,0.00,SW,225,2.0,5.0,65,0.00,,,0.00,Weather View 32 v70,2013-10-23 16:39:00,
2013-10-23 12:44:00,40.3,29.5,0.00,SW,225,1.0,5.0,65,0.00,,,0.00,Weather View 32 v70,2013-10-23 16:44:00,
2013-10-23 12:49:00,40.3,29.1,0.00,SSW,202,1.0,5.0,64,0.00,,,0.00,Weather View 32 v70,2013-10-23 16:49:00,
2013-10-23 12:54:00,40.3,28.7,0.00,South,180,2.0,5.0,63,0.00,,,0.00,Weather View 32 v70,2013-10-23 16:54:00,
2013-10-23 12:59:00,40.4,28.4,0.00,SE,135,1.0,5.0,62,0.00,,,0.00,Weather View 32 v70,2013-10-23 16:59:00,
2013-10-23 13:04:00,40.6,28.9,0.00,SW,225,1.0,5.0,63,0.00,,,0.00,Weather View 32 v70,2013-10-23 17:04:00,
2013-10-23 13:09:00,40.8,29.5,0.00,SSW,202,1.0,5.0,64,0.00,,,0.00,Weather View 32 v70,2013-10-23 17:09:00,
2013-10-23 13:14:00,41.0,29.7,0.00,SSW,202,0.0,5.0,64,0.00,,,0.00,Weather View 32 v70,2013-10-23 17:14:00,
2013-10-23 13:20:00,41.3,28.9,0.00,SSE,157,1.0,5.0,61,0.00,,,0.00,Weather View 32 v70,2013-10-23 17:20:00,
2013-10-23 13:25:00,41.7,28.4,0.00,SW,225,2.0,5.0,59,0.00,,,0.00,Weather View 32 v70,2013-10-23 17:25:00,
2013-10-23 13:29:00,41.6,28.7,0.00,WSW,247,2.0,4.0,60,0.00,,,0.00,Weather View 32 v70,2013-10-23 17:29:00,
2013-10-23 13:34:00,41.5,28.2,0.00,SSE,157,3.0,4.0,59,0.00,,,0.00,Weather View 32 v70,2013-10-23 17:34:00,
2013-10-23 13:39:00,41.3,27.2,0.00,SSW,202,1.0,4.0,57,0.00,,,0.00,Weather View 32 v70,2013-10-23 17:39:00,
2013-10-23 13:45:00,41.3,28.1,0.00,South,180,1.0,4.0,59,0.00,,,0.00,Weather View 32 v70,2013-10-23 17:45:00,
2013-10-23 13:49:00,41.2,28.4,0.00,SW,225,2.0,4.0,60,0.00,,,0.00,Weather View 32 v70,2013-10-23 17:49:00,
2013-10-23 13:55:00,41.1,28.7,0.00,SSW,202,2.0,4.0,61,0.00,,,0.00,Weather View 32 v70,2013-10-23 17:55:00,
2013-10-23 14:00:00,41.0,28.6,0.00,SSE,157,1.0,4.0,61,0.00,,,0.00,Weather View 32 v70,2013-10-23 18:00:00,
2013-10-23 14:04:00,41.1,29.1,0.00,SSW,202,0.0,4.0,62,0.00,,,0.00,Weather View 32 v70,2013-10-23 18:04:00,
2013-10-23 14:09:00,41.3,29.3,0.00,SSW,202,0.0,4.0,62,0.00,,,0.00,Weather View 32 v70,2013-10-23 18:09:00,
2013-10-23 14:14:00,41.2,28.4,0.00,SSW,202,2.0,4.0,60,0.00,,,0.00,Weather View 32 v70,2013-10-23 18:14:00,
2013-10-23 14:20:00,41.2,28.4,0.00,SW,225,1.0,4.0,60,0.00,,,0.00,Weather View 32 v70,2013-10-23 18:20:00,
2013-10-23 14:24:00,41.2,28.0,0.00,East,90,2.0,4.0,59,0.00,,,0.00,Weather View 32 v70,2013-10-23 18:24:00,
2013-10-23 14:29:00,41.3,27.2,0.00,SSW,202,2.0,5.0,57,0.00,,,0.00,Weather View 32 v70,2013-10-23 18:29:00,
2013-10-23 14:34:00,41.7,28.0,0.00,SW,225,1.0,6.0,58,0.00,,,0.00,Weather View 32 v70,2013-10-23 18:34:00,
2013-10-23 14:39:00,41.7,27.6,0.00,SW,225,2.0,6.0,57,0.00,,,0.00,Weather View 32 v70,2013-10-23 18:39:00,
2013-10-23 14:44:00,42.1,26.7,0.00,WNW,292,4.0,6.0,54,0.00,,,0.00,Weather View 32 v70,2013-10-23 18:44:00,
2013-10-23 14:49:00,42.6,26.2,0.00,SW,225,2.0,6.0,52,0.00,,,0.00,Weather View 32 v70,2013-10-23 18:49:00,
2013-10-23 14:54:00,42.8,26.4,0.00,South,180,1.0,6.0,52,0.00,,,0.00,Weather View 32 v70,2013-10-23 18:54:00,
2013-10-23 14:59:00,42.5,26.1,0.00,SSW,202,1.0,6.0,52,0.00,,,0.00,Weather View 32 v70,2013-10-23 18:59:00,
2013-10-23 15:04:00,42.4,26.9,0.00,South,180,2.0,6.0,54,0.00,,,0.00,Weather View 32 v70,2013-10-23 19:04:00,
2013-10-23 15:09:00,42.2,26.3,0.00,SSW,202,2.0,6.0,53,0.00,,,0.00,Weather View 32 v70,2013-10-23 19:09:00,
2013-10-23 15:14:00,42.6,26.2,0.00,SSW,202,3.0,7.0,52,0.00,,,0.00,Weather View 32 v70,2013-10-23 19:14:00,
2013-10-23 15:19:00,42.8,26.8,0.00,South,180,1.0,7.0,53,0.00,,,0.00,Weather View 32 v70,2013-10-23 19:19:00,
2013-10-23 15:24:00,43.0,26.6,0.00,SSW,202,2.0,7.0,52,0.00,,,0.00,Weather View 32 v70,2013-10-23 19:24:00,
2013-10-23 15:29:00,42.5,25.6,0.00,South,180,1.0,7.0,51,0.00,,,0.00,Weather View 32 v70,2013-10-23 19:29:00,
2013-10-23 15:34:00,42.4,26.9,0.00,South,180,1.0,7.0,54,0.00,,,0.00,Weather View 32 v70,2013-10-23 19:34:00,
2013-10-23 15:39:00,42.5,27.0,0.00,SSE,157,1.0,7.0,54,0.00,,,0.00,Weather View 32 v70,2013-10-23 19:39:00,
2013-10-23 15:44:00,42.7,26.3,0.00,SSW,202,6.0,7.0,52,0.00,,,0.00,Weather View 32 v70,2013-10-23 19:44:00,
2013-10-23 15:49:00,42.8,26.4,0.00,NW,315,3.0,7.0,52,0.00,,,0.00,Weather View 32 v70,2013-10-23 19:49:00,
2013-10-23 15:54:00,42.8,26.4,0.00,SE,135,2.0,7.0,52,0.00,,,0.00,Weather View 32 v70,2013-10-23 19:54:00,
2013-10-23 15:59:00,42.7,26.3,0.00,SE,135,1.0,7.0,52,0.00,,,0.00,Weather View 32 v70,2013-10-23 19:59:00,
2013-10-23 16:04:00,42.7,26.3,0.00,NNW,337,3.0,7.0,52,0.00,,,0.00,Weather View 32 v70,2013-10-23 20:04:00,
2013-10-23 16:09:00,42.5,26.1,0.00,West,270,2.0,7.0,52,0.00,,,0.00,Weather View 32 v70,2013-10-23 20:09:00,
2013-10-23 16:14:00,42.4,26.0,0.00,West,270,1.0,7.0,52,0.00,,,0.00,Weather View 32 v70,2013-10-23 20:14:00,
2013-10-23 16:19:00,42.2,25.8,0.00,SW,225,1.0,7.0,52,0.00,,,0.00,Weather View 32 v70,2013-10-23 20:19:00,
2013-10-23 16:24:00,42.1,25.7,0.00,SSE,157,1.0,7.0,52,0.00,,,0.00,Weather View 32 v70,2013-10-23 20:24:00,
2013-10-23 16:29:00,41.9,26.0,0.00,SW,225,2.0,7.0,53,0.00,,,0.00,Weather View 32 v70,2013-10-23 20:29:00,
2013-10-23 16:34:00,41.7,25.3,0.00,West,270,2.0,7.0,52,0.00,,,0.00,Weather View 32 v70,2013-10-23 20:34:00,
2013-10-23 16:39:00,41.5,25.1,0.00,SSE,157,2.0,7.0,52,0.00,,,0.00,Weather View 32 v70,2013-10-23 20:39:00,
2013-10-23 16:44:00,41.3,25.9,0.00,SE,135,1.0,7.0,54,0.00,,,0.00,Weather View 32 v70,2013-10-23 20:44:00,
2013-10-23 16:49:00,41.2,26.3,0.00,SE,135,1.0,7.0,55,0.00,,,0.00,Weather View 32 v70,2013-10-23 20:49:00,
2013-10-23 16:54:00,41.0,26.0,0.00,NW,315,2.0,7.0,55,0.00,,,0.00,Weather View 32 v70,2013-10-23 20:54:00,
2013-10-23 16:59:00,40.7,25.7,0.00,West,270,2.0,7.0,55,0.00,,,0.00,Weather View 32 v70,2013-10-23 20:59:00,
2013-10-23 17:04:00,40.2,25.7,0.00,South,180,1.0,5.0,56,0.00,,,0.00,Weather View 32 v70,2013-10-23 21:04:00,
2013-10-23 17:10:00,39.9,25.4,0.00,SSE,157,1.0,5.0,56,0.00,,,0.00,Weather View 32 v70,2013-10-23 21:10:00,
2013-10-23 17:14:00,39.7,25.6,0.00,SSW,202,1.0,5.0,57,0.00,,,0.00,Weather View 32 v70,2013-10-23 21:14:00,
2013-10-23 17:19:00,39.3,25.8,0.00,SSE,157,1.0,5.0,58,0.00,,,0.00,Weather View 32 v70,2013-10-23 21:19:00,
2013-10-23 17:24:00,39.1,25.5,0.00,WSW,247,1.0,5.0,58,0.00,,,0.00,Weather View 32 v70,2013-10-23 21:24:00,
2013-10-23 17:29:00,38.9,25.7,0.00,SSE,157,1.0,5.0,59,0.00,,,0.00,Weather View 32 v70,2013-10-23 21:29:00,
2013-10-23 17:34:00,38.6,25.5,0.00,SSE,157,1.0,5.0,59,0.00,,,0.00,Weather View 32 v70,2013-10-23 21:34:00,
2013-10-23 17:39:00,38.5,25.8,0.00,SSE,157,1.0,5.0,60,0.00,,,0.00,Weather View 32 v70,2013-10-23 21:39:00,
2013-10-23 17:44:00,38.3,25.6,0.00,South,180,1.0,5.0,60,0.00,,,0.00,Weather View 32 v70,2013-10-23 21:44:00,
2013-10-23 17:49:00,38.1,25.4,0.00,SSE,157,1.0,5.0,60,0.00,,,0.00,Weather View 32 v70,2013-10-23 21:49:00,
2013-10-23 17:55:00,37.9,25.6,0.00,SE,135,2.0,5.0,61,0.00,,,0.00,Weather View 32 v70,2013-10-23 21:55:00,
2013-10-23 17:59:00,37.5,25.7,0.00,SSE,157,1.0,4.0,62,0.00,,,0.00,Weather View 32 v70,2013-10-23 21:59:00,
2013-10-23 18:04:00,37.2,25.7,0.00,South,180,0.0,4.0,63,0.00,,,0.00,Weather View 32 v70,2013-10-23 22:04:00,
2013-10-23 18:09:00,36.8,25.8,0.00,South,180,0.0,4.0,64,0.00,,,0.00,Weather View 32 v70,2013-10-23 22:09:00,
2013-10-23 18:14:00,36.4,26.1,0.00,South,180,0.0,4.0,66,0.00,,,0.00,Weather View 32 v70,2013-10-23 22:14:00,
2013-10-23 18:19:00,36.1,25.8,0.00,SE,135,0.0,4.0,66,0.00,,,0.00,Weather View 32 v70,2013-10-23 22:19:00,
2013-10-23 18:24:00,35.8,25.6,0.00,SSE,157,0.0,4.0,66,0.00,,,0.00,Weather View 32 v70,2013-10-23 22:24:00,
2013-10-23 18:29:00,35.7,26.2,0.00,SSE,157,0.0,4.0,68,0.00,,,0.00,Weather View 32 v70,2013-10-23 22:29:00,
2013-10-23 18:34:00,35.5,26.0,0.00,SSE,157,0.0,4.0,68,0.00,,,0.00,Weather View 32 v70,2013-10-23 22:34:00,
2013-10-23 18:39:00,35.3,26.1,0.00,SSE,157,0.0,4.0,69,0.00,,,0.00,Weather View 32 v70,2013-10-23 22:39:00,
2013-10-23 18:44:00,34.9,26.1,0.00,SSE,157,0.0,2.0,70,0.00,,,0.00,Weather View 32 v70,2013-10-23 22:44:00,
2013-10-23 18:55:00,34.9,26.1,0.00,SSE,157,0.0,2.0,70,0.00,,,0.00,Weather View 32 v70,2013-10-23 22:55:00,
2013-10-23 19:00:00,34.7,25.6,0.00,SSE,157,0.0,2.0,69,0.00,,,0.00,Weather View 32 v70,2013-10-23 23:00:00,
2013-10-23 19:05:00,34.5,25.7,0.00,SSE,157,0.0,1.0,70,0.00,,,0.00,Weather View 32 v70,2013-10-23 23:05:00,
2013-10-23 19:10:00,34.4,25.6,0.00,SSE,157,0.0,1.0,70,0.00,,,0.00,Weather View 32 v70,2013-10-23 23:10:00,
2013-10-23 19:15:00,34.4,25.6,0.00,SSE,157,0.0,0.0,70,0.00,,,0.00,Weather View 32 v70,2013-10-23 23:15:00,
2013-10-23 19:20:00,34.4,25.6,0.00,SE,135,0.0,0.0,70,0.00,,,0.00,Weather View 32 v70,2013-10-23 23:20:00,
2013-10-23 19:25:00,34.4,25.9,0.00,SSE,157,0.0,0.0,71,0.00,,,0.00,Weather View 32 v70,2013-10-23 23:25:00,
2013-10-23 19:30:00,34.3,25.8,0.00,SSE,157,0.0,0.0,71,0.00,,,0.00,Weather View 32 v70,2013-10-23 23:30:00,
2013-10-23 19:35:00,34.0,25.9,0.00,SSE,157,0.0,0.0,72,0.00,,,0.00,Weather View 32 v70,2013-10-23 23:35:00,
2013-10-23 19:40:00,33.9,26.2,0.00,SSE,157,0.0,0.0,73,0.00,,,0.00,Weather View 32 v70,2013-10-23 23:40:00,
2013-10-23 19:45:00,33.7,26.3,0.00,SE,135,0.0,0.0,74,0.00,,,0.00,Weather View 32 v70,2013-10-23 23:45:00,
2013-10-23 19:50:00,33.6,26.2,0.00,SSE,157,0.0,0.0,74,0.00,,,0.00,Weather View 32 v70,2013-10-23 23:50:00,
2013-10-23 19:55:00,33.5,26.1,0.00,SE,135,0.0,0.0,74,0.00,,,0.00,Weather View 32 v70,2013-10-23 23:55:00,
2013-10-23 20:00:00,33.5,26.1,0.00,SSE,157,0.0,0.0,74,0.00,,,0.00,Weather View 32 v70,2013-10-24 00:00:00,
2013-10-23 20:05:00,33.5,26.4,0.00,SSE,157,0.0,0.0,75,0.00,,,0.00,Weather View 32 v70,2013-10-24 00:05:00,
2013-10-23 20:10:00,33.4,26.3,0.00,SSE,157,0.0,0.0,75,0.00,,,0.00,Weather View 32 v70,2013-10-24 00:10:00,
2013-10-23 20:15:00,33.1,26.1,0.00,South,180,0.0,0.0,75,0.00,,,0.00,Weather View 32 v70,2013-10-24 00:15:00,
2013-10-23 20:20:00,33.0,25.9,0.00,SSE,157,0.0,0.0,75,0.00,,,0.00,Weather View 32 v70,2013-10-24 00:20:00,
2013-10-23 20:25:00,32.9,25.8,0.00,SSE,157,0.0,0.0,75,0.00,,,0.00,Weather View 32 v70,2013-10-24 00:25:00,
2013-10-23 20:30:00,32.7,25.6,0.00,SSE,157,0.0,0.0,75,0.00,,,0.00,Weather View 32 v70,2013-10-24 00:30:00,
2013-10-23 20:35:00,32.6,25.8,0.00,SSE,157,0.0,0.0,76,0.00,,,0.00,Weather View 32 v70,2013-10-24 00:35:00,
2013-10-23 20:40:00,32.5,25.7,0.00,SSE,157,0.0,0.0,76,0.00,,,0.00,Weather View 32 v70,2013-10-24 00:40:00,
2013-10-23 20:45:00,32.1,25.7,0.00,South,180,0.0,0.0,77,0.00,,,0.00,Weather View 32 v70,2013-10-24 00:45:00,
2013-10-23 20:50:00,32.0,25.9,0.00,SSE,157,0.0,0.0,78,0.00,,,0.00,Weather View 32 v70,2013-10-24 00:50:00,
2013-10-23 20:55:00,31.8,25.7,0.00,SSE,157,0.0,0.0,78,0.00,,,0.00,Weather View 32 v70,2013-10-24 00:55:00,
2013-10-23 21:00:00,31.6,25.5,0.00,South,180,0.0,0.0,78,0.00,,,0.00,Weather View 32 v70,2013-10-24 01:00:00,
2013-10-23 21:05:00,31.3,25.6,0.00,South,180,0.0,0.0,79,0.00,,,0.00,Weather View 32 v70,2013-10-24 01:05:00,
2013-10-23 21:10:00,31.2,25.8,0.00,SSW,202,0.0,0.0,80,0.00,,,0.00,Weather View 32 v70,2013-10-24 01:10:00,
2013-10-23 21:15:00,30.8,25.3,0.00,SSE,157,0.0,0.0,80,0.00,,,0.00,Weather View 32 v70,2013-10-24 01:15:00,
2013-10-23 21:20:00,30.7,25.2,0.00,South,180,0.0,0.0,80,0.00,,,0.00,Weather View 32 v70,2013-10-24 01:20:00,
2013-10-23 21:25:00,30.5,25.4,0.00,South,180,0.0,0.0,81,0.00,,,0.00,Weather View 32 v70,2013-10-24 01:25:00,
2013-10-23 21:30:00,30.7,25.8,0.00,SSW,202,1.0,3.0,82,0.00,,,0.00,Weather View 32 v70,2013-10-24 01:30:00,
2013-10-23 21:35:00,30.7,25.8,0.00,South,180,1.0,3.0,82,0.00,,,0.00,Weather View 32 v70,2013-10-24 01:35:00,
2013-10-23 21:40:00,30.9,26.0,0.00,South,180,1.0,3.0,82,0.00,,,0.00,Weather View 32 v70,2013-10-24 01:40:00,
2013-10-23 21:45:00,30.9,26.3,0.00,South,180,0.0,3.0,83,0.00,,,0.00,Weather View 32 v70,2013-10-24 01:45:00,
2013-10-23 21:50:00,31.0,26.1,0.00,South,180,0.0,3.0,82,0.00,,,0.00,Weather View 32 v70,2013-10-24 01:50:00,
2013-10-23 21:55:00,31.0,26.4,0.00,South,180,0.0,3.0,83,0.00,,,0.00,Weather View 32 v70,2013-10-24 01:55:00,
2013-10-23 22:00:00,31.0,26.4,0.00,South,180,0.0,3.0,83,0.00,,,0.00,Weather View 32 v70,2013-10-24 02:00:00,
2013-10-23 22:05:00,31.1,26.5,0.00,South,180,0.0,3.0,83,0.00,,,0.00,Weather View 32 v70,2013-10-24 02:05:00,
2013-10-23 22:10:00,31.1,26.5,0.00,South,180,0.0,3.0,83,0.00,,,0.00,Weather View 32 v70,2013-10-24 02:10:00,
2013-10-23 22:15:00,31.1,26.5,0.00,SSE,157,0.0,3.0,83,0.00,,,0.00,Weather View 32 v70,2013-10-24 02:15:00,
2013-10-23 22:20:00,31.1,26.8,0.00,SW,225,0.0,3.0,84,0.00,,,0.00,Weather View 32 v70,2013-10-24 02:20:00,
2013-10-23 22:25:00,31.1,26.8,0.00,SSE,157,0.0,3.0,84,0.00,,,0.00,Weather View 32 v70,2013-10-24 02:25:00,
2013-10-23 22:30:00,31.0,26.7,0.00,SE,135,0.0,2.0,84,0.00,,,0.00,Weather View 32 v70,2013-10-24 02:30:00,
2013-10-23 22:35:00,31.0,26.7,0.00,SSE,157,0.0,2.0,84,0.00,,,0.00,Weather View 32 v70,2013-10-24 02:35:00,
2013-10-23 22:40:00,30.8,26.5,0.00,SSW,202,1.0,3.0,84,0.00,,,0.00,Weather View 32 v70,2013-10-24 02:40:00,
2013-10-23 22:45:00,30.7,26.4,0.00,SSE,157,0.0,3.0,84,0.00,,,0.00,Weather View 32 v70,2013-10-24 02:45:00,
2013-10-23 22:50:00,30.5,26.0,0.00,West,270,1.0,3.0,83,0.00,,,0.00,Weather View 32 v70,2013-10-24 02:50:00,
2013-10-23 22:55:00,30.7,26.1,0.00,West,270,2.0,3.0,83,0.00,,,0.00,Weather View 32 v70,2013-10-24 02:55:00,
2013-10-23 23:00:00,30.7,25.8,0.00,West,270,1.0,3.0,82,0.00,,,0.00,Weather View 32 v70,2013-10-24 03:00:00,
2013-10-23 23:05:00,30.7,25.8,0.00,SSE,157,1.0,3.0,82,0.00,,,0.00,Weather View 32 v70,2013-10-24 03:05:00,
2013-10-23 23:10:00,30.8,25.9,0.00,South,180,0.0,3.0,82,0.00,,,0.00,Weather View 32 v70,2013-10-24 03:10:00,
2013-10-23 23:15:00,30.9,26.0,0.00,SSE,157,0.0,3.0,82,0.00,,,0.00,Weather View 32 v70,2013-10-24 03:15:00,
2013-10-23 23:20:00,31.2,26.1,0.00,SSE,157,0.0,3.0,81,0.00,,,0.00,Weather View 32 v70,2013-10-24 03:20:00,
2013-10-23 23:25:00,31.3,25.9,0.00,South,180,0.0,3.0,80,0.00,,,0.00,Weather View 32 v70,2013-10-24 03:25:00,
2013-10-23 23:30:00,31.1,25.7,0.00,SSE,157,0.0,3.0,80,0.00,,,0.00,Weather View 32 v70,2013-10-24 03:30:00,
2013-10-23 23:35:00,30.8,25.3,0.00,SSE,157,0.0,3.0,80,0.00,,,0.00,Weather View 32 v70,2013-10-24 03:35:00,
2013-10-23 23:40:00,30.5,25.4,0.00,SSW,202,1.0,3.0,81,0.00,,,0.00,Weather View 32 v70,2013-10-24 03:40:00,
2013-10-23 23:45:00,30.5,25.4,0.00,WSW,247,0.0,3.0,81,0.00,,,0.00,Weather View 32 v70,2013-10-24 03:45:00,
2013-10-23 23:50:00,30.2,25.1,0.00,SSE,157,0.0,3.0,81,0.00,,,0.00,Weather View 32 v70,2013-10-24 03:50:00,
2013-10-23 23:55:00,29.9,24.7,0.00,South,180,0.0,3.0,81,0.00,,,0.00,Weather View 32 v70,2013-10-24 03:55:00,